ACA343 CYOW-CYVR

Flight info

Callsign ACA343
Flight time N/A
Altitude 34000
Route RADEN DCT UBTIX DCT 49N082W DCT 5087N DCT YRL DCT 5145N10600W/N0455F360 DCT SPRAE DCT BOOTH CANUC6
Aircraft A321/M-SDE3FGHIJ7M3P2RWY/LB1

Departure

Time 2026-05-04 17:35
Airport Ottawa Macdonald-Cartier International Airport (CYOW)

Arrival

Time N/A
Airport Vancouver International Airport (CYVR)
Time Latitude Longitude Altitude Speed Heading
2026-05-04 17:22 45.32150 -75.66764 377 ft 0 kts 36°
2026-05-04 17:23 45.32138 -75.66778 377 ft 2 kts 37°
2026-05-04 17:23 45.32126 -75.66790 377 ft 2 kts 35°
2026-05-04 17:23 45.32102 -75.66815 377 ft 2 kts 36°
2026-05-04 17:24 45.32090 -75.66829 377 ft 2 kts 62°
2026-05-04 17:24 45.32093 -75.66876 378 ft 1 kts 128°
2026-05-04 17:25 45.32095 -75.66878 378 ft 0 kts 126°
2026-05-04 17:27 45.32081 -75.66852 377 ft 3 kts 127°
2026-05-04 17:27 45.32041 -75.66775 377 ft 6 kts 125°
2026-05-04 17:28 45.31970 -75.66638 376 ft 10 kts 126°
2026-05-04 17:29 45.31905 -75.66357 374 ft 12 kts 57°
2026-05-04 17:29 45.32056 -75.66021 372 ft 14 kts 57°
2026-05-04 17:30 45.32217 -75.65662 373 ft 14 kts 57°
2026-05-04 17:31 45.32328 -75.65416 372 ft 14 kts 57°
2026-05-04 17:31 45.32503 -75.65025 371 ft 16 kts 58°
2026-05-04 17:32 45.32591 -75.64809 370 ft 9 kts 79°
2026-05-04 17:33 45.32526 -75.64548 368 ft 8 kts 153°
2026-05-04 17:33 45.32491 -75.64548 368 ft 3 kts 223°
2026-05-04 17:34 45.32041 -75.65546 371 ft 126 kts 237°
2026-05-04 17:34 45.31467 -75.66821 471 ft 169 kts 239°
2026-05-04 17:35 45.29727 -75.70963 2003 ft 176 kts 239°
2026-05-04 17:35 45.28374 -75.74141 2598 ft 201 kts 238°
2026-05-04 17:35 45.27597 -75.75922 2816 ft 220 kts 238°
2026-05-04 17:36 45.26831 -75.77875 3194 ft 232 kts 251°
2026-05-04 17:36 45.26732 -75.80162 3777 ft 239 kts 281°
2026-05-04 17:36 45.27517 -75.82232 4444 ft 247 kts 312°
2026-05-04 17:36 45.28998 -75.83517 5097 ft 256 kts 338°
2026-05-04 17:37 45.30763 -75.84113 5687 ft 263 kts 343°
2026-05-04 17:37 45.32589 -75.84668 6139 ft 273 kts 343°
2026-05-04 17:37 45.34454 -75.85224 6780 ft 275 kts 343°
2026-05-04 17:37 45.36319 -75.85774 7441 ft 276 kts 342°
2026-05-04 17:38 45.38196 -75.86326 8094 ft 277 kts 342°
2026-05-04 17:38 45.40081 -75.86879 8743 ft 277 kts 342°
2026-05-04 17:38 45.41974 -75.87435 9389 ft 278 kts 342°
2026-05-04 17:38 45.43866 -75.87992 10038 ft 278 kts 341°
2026-05-04 17:39 45.47754 -75.89152 10794 ft 297 kts 341°
2026-05-04 17:39 45.49838 -75.89775 11050 ft 311 kts 342°
2026-05-04 17:39 45.51977 -75.90411 11322 ft 323 kts 342°
2026-05-04 17:40 45.54233 -75.91077 11749 ft 329 kts 342°
2026-05-04 17:40 45.56474 -75.91736 12307 ft 331 kts 342°
2026-05-04 17:40 45.58750 -75.92403 12863 ft 333 kts 342°
2026-05-04 17:40 45.61022 -75.93075 13379 ft 335 kts 342°
2026-05-04 17:41 45.63302 -75.93747 13908 ft 337 kts 342°
2026-05-04 17:41 45.65603 -75.94430 14409 ft 339 kts 342°
2026-05-04 17:41 45.67931 -75.95119 14926 ft 340 kts 342°
2026-05-04 17:41 45.70251 -75.95809 15416 ft 342 kts 342°
2026-05-04 17:42 45.72590 -75.96503 15897 ft 344 kts 342°
2026-05-04 17:42 45.74938 -75.97201 16385 ft 346 kts 342°
2026-05-04 17:42 45.77344 -75.97918 16835 ft 349 kts 342°
2026-05-04 17:42 45.79715 -75.98624 17298 ft 350 kts 342°
2026-05-04 17:43 45.82131 -75.99343 17753 ft 352 kts 342°
2026-05-04 17:43 45.84525 -76.00060 18170 ft 354 kts 342°
2026-05-04 17:43 45.86952 -76.00784 18614 ft 355 kts 342°
2026-05-04 17:43 45.89355 -76.01503 19069 ft 356 kts 342°
2026-05-04 17:44 45.91730 -76.02471 19477 ft 351 kts 332°
2026-05-04 17:44 45.93832 -76.04208 19904 ft 346 kts 319°
2026-05-04 17:44 45.95581 -76.06566 20324 ft 344 kts 310°
2026-05-04 17:44 45.97161 -76.09134 20742 ft 345 kts 309°
2026-05-04 17:45 45.98743 -76.11730 21111 ft 347 kts 309°
2026-05-04 17:45 46.00323 -76.14329 21480 ft 349 kts 309°
2026-05-04 17:45 46.01925 -76.16968 21852 ft 351 kts 309°
2026-05-04 17:45 46.03528 -76.19609 22221 ft 352 kts 309°
2026-05-04 17:46 46.05136 -76.22261 22585 ft 354 kts 309°
2026-05-04 17:46 46.06756 -76.24934 22919 ft 356 kts 309°
2026-05-04 17:46 46.08389 -76.27632 23268 ft 358 kts 309°
2026-05-04 17:46 46.09995 -76.30290 23606 ft 359 kts 309°
2026-05-04 17:47 46.11659 -76.33043 23978 ft 360 kts 309°
2026-05-04 17:47 46.13306 -76.35769 24341 ft 362 kts 309°
2026-05-04 17:47 46.14953 -76.38500 24654 ft 364 kts 309°
2026-05-04 17:47 46.16615 -76.41256 24964 ft 366 kts 309°
2026-05-04 17:48 46.18290 -76.44038 25305 ft 367 kts 309°
2026-05-04 17:48 46.19960 -76.46814 25628 ft 368 kts 309°
2026-05-04 17:48 46.21638 -76.49609 25906 ft 370 kts 309°
2026-05-04 17:48 46.23320 -76.52414 26210 ft 372 kts 309°
2026-05-04 17:49 46.25009 -76.55228 26495 ft 373 kts 309°
2026-05-04 17:49 46.26706 -76.58063 26778 ft 374 kts 309°
2026-05-04 17:49 46.28434 -76.60952 27057 ft 376 kts 309°
2026-05-04 17:49 46.30153 -76.63828 27340 ft 377 kts 309°
2026-05-04 17:50 46.31866 -76.66699 27622 ft 378 kts 309°
2026-05-04 17:50 46.33580 -76.69572 27885 ft 379 kts 309°
2026-05-04 17:50 46.35302 -76.72463 28154 ft 381 kts 309°
2026-05-04 17:50 46.37047 -76.75394 28401 ft 382 kts 309°
2026-05-04 17:51 46.38782 -76.78313 28646 ft 384 kts 309°
2026-05-04 17:51 46.40522 -76.81245 28892 ft 385 kts 309°
2026-05-04 17:51 46.42264 -76.84180 29110 ft 386 kts 309°
2026-05-04 17:51 46.44003 -76.87116 29354 ft 387 kts 309°
2026-05-04 17:52 46.45760 -76.90083 29663 ft 386 kts 309°
2026-05-04 17:52 46.47490 -76.93005 29998 ft 384 kts 309°
2026-05-04 17:52 46.49220 -76.95933 30309 ft 383 kts 309°
2026-05-04 17:52 46.50956 -76.98878 30591 ft 382 kts 309°
2026-05-04 17:53 46.52682 -77.01807 30882 ft 381 kts 309°
2026-05-04 17:53 46.54393 -77.04715 31171 ft 380 kts 309°
2026-05-04 17:53 46.56118 -77.07642 31418 ft 379 kts 309°
2026-05-04 17:53 46.57841 -77.10576 31654 ft 379 kts 309°
2026-05-04 17:54 46.59544 -77.13476 31918 ft 378 kts 309°
2026-05-04 17:54 46.61235 -77.16363 32129 ft 377 kts 309°
2026-05-04 17:54 46.62928 -77.19254 32297 ft 378 kts 309°
2026-05-04 17:54 46.64634 -77.22169 32453 ft 379 kts 309°
2026-05-04 17:55 46.66349 -77.25104 32614 ft 380 kts 309°
2026-05-04 17:55 46.68045 -77.28012 32787 ft 380 kts 309°
2026-05-04 17:55 46.69773 -77.30970 32969 ft 380 kts 309°
2026-05-04 17:55 46.71484 -77.33909 33136 ft 380 kts 309°
2026-05-04 17:56 46.73181 -77.36827 33292 ft 381 kts 309°
2026-05-04 17:56 46.74892 -77.39771 33423 ft 381 kts 309°
2026-05-04 17:56 46.76618 -77.42741 33579 ft 382 kts 309°
2026-05-04 17:56 46.78328 -77.45689 33598 ft 382 kts 309°
2026-05-04 17:57 46.81745 -77.51589 33605 ft 381 kts 309°
2026-05-04 17:57 46.85160 -77.57495 33603 ft 382 kts 309°
2026-05-04 17:58 46.88575 -77.63414 33604 ft 383 kts 308°
2026-05-04 17:58 46.92019 -77.69403 33598 ft 383 kts 308°
2026-05-04 17:59 46.95431 -77.75345 33589 ft 383 kts 308°
2026-05-04 18:00 47.00536 -77.84383 33583 ft 382 kts 306°
2026-05-04 18:00 47.03733 -77.90549 33576 ft 382 kts 305°
2026-05-04 18:01 47.06954 -77.96801 33573 ft 384 kts 305°
2026-05-04 18:01 47.10166 -78.03047 33576 ft 383 kts 305°
2026-05-04 18:02 47.15006 -78.12486 33563 ft 384 kts 305°
2026-05-04 18:02 47.18241 -78.18809 33572 ft 384 kts 305°
2026-05-04 18:03 47.21437 -78.25070 33579 ft 384 kts 305°
2026-05-04 18:03 47.24618 -78.31323 33573 ft 383 kts 305°
2026-05-04 18:04 47.27833 -78.37649 33563 ft 384 kts 304°
2026-05-04 18:05 47.32606 -78.47076 33567 ft 384 kts 304°
2026-05-04 18:05 47.35776 -78.53354 33561 ft 383 kts 304°
2026-05-04 18:06 47.40534 -78.62798 33545 ft 383 kts 304°